• In Lithuania
  • List of Countries
  • For 7 days
  • Water Temperature
  • Satellite Maps
  • Weather Map
  • Weather Widgets
  • user-avatar
    Login

    Hourly Weather Baden-Baden

    Today, 21 October, Saturday

    Time Temperature Precipitation Wind Pressure Humidity
    00:00 +12°C° 0 mm 2 mps 731 mmHg 90%
    01:00 +13°C° 0 mm 2 mps 730 mmHg 88%
    02:00 +13°C° 0 mm 2 mps 730 mmHg 89%
    03:00 +13°C° 0 mm 2 mps 730 mmHg 90%
    04:00 +12°C° 0 mm 1 mps 730 mmHg 91%
    05:00 +12°C° 0 mm 2 mps 730 mmHg 92%
    06:00 +12°C° 0 mm 2 mps 730 mmHg 93%
    07:00 +12°C° 0 mm 2 mps 730 mmHg 94%
    08:00 +13°C° 0 mm 3 mps 730 mmHg 87%
    09:00 +15°C° 0 mm 4 mps 730 mmHg 80%
    10:00 +18°C° 0 mm 4 mps 730 mmHg 74%
    11:00 +18°C° 0 mm 4 mps 730 mmHg 70%
    12:00 +19°C° 0 mm 4 mps 730 mmHg 66%
    13:00 +20°C° 0 mm 4 mps 730 mmHg 62%
    14:00 +20°C° 0.4 mm 4 mps 730 mmHg 66%
    15:00 +19°C° 0.4 mm 4 mps 729 mmHg 70%
    16:00 +18°C° 0.4 mm 4 mps 729 mmHg 74%
    17:00 +17°C° 0.4 mm 3 mps 729 mmHg 79%
    18:00 +14°C° 0.4 mm 3 mps 729 mmHg 85%
    19:00 +13°C° 0.4 mm 3 mps 729 mmHg 90%
    20:00 +12°C° 1.1 mm 3 mps 730 mmHg 89%
    21:00 +12°C° 1.1 mm 4 mps 730 mmHg 88%
    22:00 +11°C° 1.1 mm 4 mps 731 mmHg 86%
    23:00 +11°C° 0.1 mm 4 mps 731 mmHg 86%

    Tomorrow, 22 October, Sunday

    Time Temperature Precipitation Wind Pressure Humidity
    00:00 +10°C° 0.1 mm 4 mps 731 mmHg 85%
    01:00 +10°C° 0.1 mm 4 mps 731 mmHg 85%
    02:00 +8°C° 0 mm 4 mps 731 mmHg 86%
    03:00 +8°C° 0 mm 4 mps 731 mmHg 86%
    04:00 +7°C° 0 mm 4 mps 731 mmHg 87%
    05:00 +7°C° 0 mm 4 mps 731 mmHg 87%
    06:00 +7°C° 0 mm 4 mps 731 mmHg 87%
    07:00 +6°C° 0 mm 4 mps 731 mmHg 88%
    08:00 +7°C° 0 mm 4 mps 731 mmHg 83%
    09:00 +8°C° 0 mm 5 mps 732 mmHg 78%
    10:00 +8°C° 0 mm 6 mps 732 mmHg 74%
    11:00 +9°C° 0.2 mm 6 mps 732 mmHg 72%
    12:00 +9°C° 0.2 mm 6 mps 732 mmHg 70%
    13:00 +9°C° 0.2 mm 6 mps 731 mmHg 68%
    14:00 +9°C° 0.2 mm 5 mps 731 mmHg 70%
    15:00 +9°C° 0.2 mm 5 mps 731 mmHg 72%
    16:00 +9°C° 0.2 mm 5 mps 731 mmHg 74%
    17:00 +8°C° 0.1 mm 4 mps 731 mmHg 77%
    18:00 +7°C° 0.1 mm 4 mps 732 mmHg 81%
    19:00 +6°C° 0.1 mm 4 mps 732 mmHg 85%
    20:00 +6°C° 0.1 mm 4 mps 732 mmHg 85%
    21:00 +6°C° 0.1 mm 4 mps 732 mmHg 86%
    22:00 +6°C° 0.1 mm 4 mps 733 mmHg 87%
    23:00 +6°C° 0.1 mm 4 mps 733 mmHg 87%

    Day after tomorrow, 23 October, Monday

    Time Temperature Precipitation Wind Pressure Humidity
    00:00 +6°C° 0.1 mm 4 mps 733 mmHg 88%
    01:00 +6°C° 0.1 mm 4 mps 733 mmHg 89%
    02:00 +6°C° 0.1 mm 4 mps 733 mmHg 89%
    03:00 +7°C° 0.1 mm 3 mps 733 mmHg 89%
    04:00 +7°C° 0.1 mm 3 mps 733 mmHg 90%
    05:00 +7°C° 0.2 mm 3 mps 733 mmHg 90%
    06:00 +7°C° 0.2 mm 3 mps 733 mmHg 90%
    07:00 +7°C° 0.2 mm 3 mps 733 mmHg 90%
    08:00 +7°C° 0.1 mm 4 mps 734 mmHg 88%
    09:00 +7°C° 0.1 mm 4 mps 734 mmHg 87%
    10:00 +8°C° 0.1 mm 4 mps 735 mmHg 85%
    11:00 +8°C° 0.1 mm 4 mps 735 mmHg 84%
    12:00 +8°C° 0.1 mm 4 mps 735 mmHg 82%
    13:00 +10°C° 0.1 mm 4 mps 735 mmHg 81%
    14:00 +10°C° 0.1 mm 4 mps 735 mmHg 81%
    15:00 +10°C° 0.1 mm 4 mps 735 mmHg 82%
    16:00 +10°C° 0.1 mm 3 mps 735 mmHg 82%
    17:00 +9°C° 0.1 mm 3 mps 736 mmHg 85%
    18:00 +9°C° 0.1 mm 3 mps 736 mmHg 89%
    19:00 +8°C° 0.1 mm 2 mps 736 mmHg 92%
    20:00 +8°C° 0.1 mm 2 mps 736 mmHg 93%
    21:00 +8°C° 0.1 mm 2 mps 736 mmHg 93%
    22:00 +8°C° 0.1 mm 2 mps 737 mmHg 93%
    23:00 +8°C° 0.1 mm 2 mps 737 mmHg 94%

    24 October, Tuesday

    Time Temperature Precipitation Wind Pressure Humidity
    00:00 +8°C° 0.1 mm 2 mps 737 mmHg 94%
    01:00 +8°C° 0.1 mm 2 mps 737 mmHg 94%
    02:00 +8°C° 0.4 mm 2 mps 737 mmHg 94%
    03:00 +8°C° 0.4 mm 2 mps 737 mmHg 94%
    04:00 +9°C° 0.4 mm 1 mps 736 mmHg 94%
    05:00 +9°C° 0.2 mm 1 mps 737 mmHg 94%
    06:00 +9°C° 0.2 mm 1 mps 737 mmHg 93%
    07:00 +10°C° 0.2 mm 1 mps 737 mmHg 93%
    08:00 +10°C° 0 mm 1 mps 737 mmHg 91%
    09:00 +11°C° 0 mm 1 mps 738 mmHg 89%
    10:00 +11°C° 0 mm 1 mps 738 mmHg 87%
    11:00 +12°C° 0 mm 1 mps 738 mmHg 85%
    12:00 +13°C° 0 mm 1 mps 738 mmHg 82%
    13:00 +13°C° 0 mm 1 mps 738 mmHg 80%
    14:00 +14°C° 0 mm 1 mps 738 mmHg 80%
    15:00 +13°C° 0 mm 0 mps 738 mmHg 80%
    16:00 +13°C° 0 mm 0 mps 738 mmHg 79%
    17:00 +12°C° 0 mm 0 mps 738 mmHg 83%
    18:00 +11°C° 0 mm 0 mps 738 mmHg 87%
    19:00 +10°C° 0 mm 0 mps 738 mmHg 91%
    20:00 +11°C° 0 mm 1 mps 738 mmHg 91%
    21:00 +11°C° 0 mm 1 mps 738 mmHg 91%
    22:00 +10°C° 0 mm 1 mps 739 mmHg 91%
    23:00 +10°C° 0 mm 1 mps 739 mmHg 91%

    25 October, Wednesday

    Time Temperature Precipitation Wind Pressure Humidity
    00:00 +9°C° 0 mm 1 mps 739 mmHg 92%
    01:00 +9°C° 0 mm 1 mps 738 mmHg 92%
    02:00 +9°C° 0 mm 1 mps 738 mmHg 92%
    03:00 +8°C° 0 mm 1 mps 738 mmHg 92%
    04:00 +8°C° 0 mm 1 mps 738 mmHg 92%
    05:00 +8°C° 0 mm 1 mps 738 mmHg 92%
    06:00 +8°C° 0 mm 1 mps 738 mmHg 92%
    07:00 +8°C° 0 mm 1 mps 738 mmHg 91%
    08:00 +9°C° 0 mm 1 mps 738 mmHg 86%
    09:00 +11°C° 0 mm 1 mps 739 mmHg 80%
    10:00 +12°C° 0 mm 1 mps 739 mmHg 74%
    11:00 +13°C° 0 mm 2 mps 739 mmHg 69%
    12:00 +15°C° 0 mm 2 mps 739 mmHg 64%
    13:00 +16°C° 0 mm 2 mps 738 mmHg 58%
    14:00 +16°C° 0 mm 2 mps 738 mmHg 60%
    15:00 +15°C° 0 mm 2 mps 738 mmHg 62%
    16:00 +15°C° 0 mm 2 mps 738 mmHg 64%
    17:00 +13°C° 0 mm 2 mps 738 mmHg 70%
    18:00 +12°C° 0 mm 2 mps 738 mmHg 76%
    19:00 +9°C° 0 mm 2 mps 738 mmHg 81%
    20:00 +9°C° 0 mm 2 mps 739 mmHg 82%
    21:00 +8°C° 0 mm 2 mps 739 mmHg 84%
    22:00 +8°C° 0 mm 2 mps 739 mmHg 85%
    23:00 +7°C° 0 mm 2 mps 739 mmHg 85%

    26 October, Thursday

    Time Temperature Precipitation Wind Pressure Humidity
    00:00 +7°C° 0 mm 2 mps 739 mmHg 85%
    01:00 +7°C° 0 mm 2 mps 739 mmHg 86%
    02:00 +7°C° 0 mm 2 mps 739 mmHg 86%
    03:00 +6°C° 0 mm 2 mps 739 mmHg 85%
    04:00 +6°C° 0 mm 2 mps 739 mmHg 85%
    05:00 +6°C° 0 mm 2 mps 739 mmHg 84%
    06:00 +6°C° 0 mm 2 mps 739 mmHg 84%
    07:00 +6°C° 0 mm 2 mps 739 mmHg 83%
    08:00 +7°C° 0 mm 2 mps 739 mmHg 76%
    09:00 +9°C° 0 mm 2 mps 739 mmHg 68%
    10:00 +12°C° 0 mm 2 mps 739 mmHg 61%
    11:00 +13°C° 0 mm 2 mps 739 mmHg 56%
    12:00 +15°C° 0 mm 2 mps 739 mmHg 52%
    13:00 +16°C° 0 mm 2 mps 739 mmHg 48%
    14:00 +16°C° 0 mm 2 mps 739 mmHg 51%
    15:00 +16°C° 0 mm 2 mps 739 mmHg 54%
    16:00 +15°C° 0 mm 2 mps 739 mmHg 56%
    17:00 +13°C° 0 mm 2 mps 739 mmHg 60%
    18:00 +12°C° 0 mm 2 mps 739 mmHg 64%
    19:00 +9°C° 0 mm 2 mps 739 mmHg 68%
    20:00 +8°C° 0 mm 2 mps 739 mmHg 67%
    21:00 +8°C° 0 mm 2 mps 740 mmHg 67%
    22:00 +8°C° 0 mm 1 mps 740 mmHg 67%
    23:00 +8°C° 0 mm 1 mps 740 mmHg 65%
    Show more